RUK178 EGAA-EGPH

Flight info

Callsign RUK178
Flight time 0h 28m
Altitude 19000
Route BLACA P600 TUNSO
Aircraft B738/M-SDE2E3FGHIRWXY/LB1

Departure

Time 2026-05-05 22:49
Airport Belfast International Airport (EGAA)

Arrival

Time 2026-05-05 23:17
Airport Edinburgh Airport (EGPH)
Time Latitude Longitude Altitude Speed Heading
2026-05-05 22:38 54.66006 -6.21740 277 ft 0 kts 246°
2026-05-05 22:41 54.66006 -6.21739 277 ft 1 kts 246°
2026-05-05 22:41 54.66009 -6.21727 277 ft 2 kts 246°
2026-05-05 22:42 54.66018 -6.21692 277 ft 2 kts 246°
2026-05-05 22:42 54.66022 -6.21675 277 ft 3 kts 246°
2026-05-05 22:42 54.66038 -6.21640 277 ft 3 kts 216°
2026-05-05 22:42 54.66049 -6.21629 277 ft 3 kts 200°
2026-05-05 22:43 54.66069 -6.21623 277 ft 3 kts 174°
2026-05-05 22:43 54.66085 -6.21631 277 ft 0 kts 156°
2026-05-05 22:44 54.66080 -6.21627 277 ft 3 kts 154°
2026-05-05 22:44 54.66049 -6.21601 277 ft 6 kts 154°
2026-05-05 22:45 54.66002 -6.21560 277 ft 9 kts 154°
2026-05-05 22:45 54.65942 -6.21549 277 ft 10 kts 226°
2026-05-05 22:45 54.65909 -6.21663 277 ft 12 kts 245°
2026-05-05 22:45 54.65871 -6.21806 277 ft 14 kts 245°
2026-05-05 22:46 54.65825 -6.21974 277 ft 17 kts 245°
2026-05-05 22:46 54.65781 -6.22172 277 ft 19 kts 251°
2026-05-05 22:46 54.65761 -6.22402 277 ft 20 kts 263°
2026-05-05 22:46 54.65744 -6.22652 277 ft 19 kts 263°
2026-05-05 22:47 54.65691 -6.22791 277 ft 13 kts 174°
2026-05-05 22:47 54.65600 -6.22743 277 ft 15 kts 162°
2026-05-05 22:47 54.65515 -6.22696 277 ft 11 kts 162°
2026-05-05 22:47 54.65472 -6.22664 277 ft 6 kts 134°
2026-05-05 22:48 54.65476 -6.22585 277 ft 8 kts 65°
2026-05-05 22:48 54.65610 -6.22090 277 ft 84 kts 65°
2026-05-05 22:48 54.65950 -6.20825 277 ft 147 kts 65°
2026-05-05 22:48 54.66426 -6.19056 709 ft 167 kts 65°
2026-05-05 22:49 54.66931 -6.17174 1471 ft 175 kts 64°
2026-05-05 22:49 54.67446 -6.15254 2277 ft 179 kts 63°
2026-05-05 22:49 54.67966 -6.13294 3069 ft 182 kts 63°
2026-05-05 22:49 54.68492 -6.11193 3760 ft 197 kts 65°
2026-05-05 22:50 54.68992 -6.08949 4440 ft 205 kts 67°
2026-05-05 22:50 54.69505 -6.06584 5137 ft 210 kts 67°
2026-05-05 22:50 54.70020 -6.04191 5780 ft 220 kts 68°
2026-05-05 22:50 54.70560 -6.01614 6469 ft 232 kts 68°
2026-05-05 22:51 54.71122 -5.98920 7182 ft 248 kts 68°
2026-05-05 22:51 54.71735 -5.96024 7925 ft 268 kts 68°
2026-05-05 22:51 54.72404 -5.92874 8675 ft 287 kts 69°
2026-05-05 22:51 54.73109 -5.89507 9418 ft 305 kts 69°
2026-05-05 22:52 54.73841 -5.85984 10149 ft 322 kts 69°
2026-05-05 22:52 54.74609 -5.82256 10884 ft 337 kts 69°
2026-05-05 22:52 54.75417 -5.78337 11620 ft 351 kts 69°
2026-05-05 22:52 54.76255 -5.74318 12348 ft 363 kts 68°
2026-05-05 22:53 54.77127 -5.70149 13078 ft 374 kts 68°
2026-05-05 22:53 54.78031 -5.65830 13814 ft 383 kts 68°
2026-05-05 22:53 54.78951 -5.61425 14547 ft 391 kts 69°
2026-05-05 22:53 54.79865 -5.56984 15270 ft 397 kts 69°
2026-05-05 22:54 54.80794 -5.52410 16003 ft 402 kts 69°
2026-05-05 22:54 54.81714 -5.47852 16724 ft 406 kts 69°
2026-05-05 22:54 54.82653 -5.43194 17454 ft 408 kts 69°
2026-05-05 22:54 54.83594 -5.38600 18170 ft 407 kts 69°
2026-05-05 22:55 54.84549 -5.33972 18693 ft 404 kts 69°
2026-05-05 22:55 54.85502 -5.29400 18978 ft 408 kts 68°
2026-05-05 22:55 54.86511 -5.24712 19085 ft 415 kts 67°
2026-05-05 22:55 54.87913 -5.20339 19137 ft 419 kts 51°
2026-05-05 22:56 54.89930 -5.16701 19155 ft 415 kts 39°
2026-05-05 22:56 54.92192 -5.13706 19128 ft 410 kts 32°
2026-05-05 22:56 54.94593 -5.11055 19107 ft 405 kts 28°
2026-05-05 22:56 54.97042 -5.08628 19100 ft 402 kts 26°
2026-05-05 22:57 54.99475 -5.06374 19099 ft 400 kts 25°
2026-05-05 22:57 55.01968 -5.04144 19098 ft 399 kts 24°
2026-05-05 22:57 55.04427 -5.01979 19098 ft 398 kts 24°
2026-05-05 22:57 55.06895 -4.99734 19097 ft 399 kts 28°
2026-05-05 22:58 55.09033 -4.96579 19101 ft 405 kts 45°
2026-05-05 22:58 55.10711 -4.92665 19109 ft 408 kts 54°
2026-05-05 22:58 55.12161 -4.88366 19108 ft 409 kts 59°
2026-05-05 22:58 55.13465 -4.83984 19105 ft 409 kts 62°
2026-05-05 22:59 55.14712 -4.79509 19103 ft 409 kts 63°
2026-05-05 22:59 55.15908 -4.75019 19102 ft 410 kts 64°
2026-05-05 22:59 55.17089 -4.70442 19103 ft 410 kts 64°
2026-05-05 22:59 55.18236 -4.65920 19103 ft 410 kts 64°
2026-05-05 23:00 55.20534 -4.56764 19104 ft 410 kts 64°
2026-05-05 23:00 55.21683 -4.52159 19109 ft 410 kts 65°
2026-05-05 23:00 55.22817 -4.47608 19112 ft 410 kts 65°
2026-05-05 23:01 55.23955 -4.43036 19111 ft 410 kts 65°
2026-05-05 23:01 55.25097 -4.38441 18969 ft 406 kts 65°
2026-05-05 23:01 55.26187 -4.34033 18510 ft 387 kts 65°
2026-05-05 23:01 55.27224 -4.29816 18011 ft 369 kts 65°
2026-05-05 23:02 55.28219 -4.25732 17503 ft 354 kts 65°
2026-05-05 23:02 55.29165 -4.21824 17002 ft 344 kts 65°
2026-05-05 23:02 55.30083 -4.18014 16503 ft 338 kts 65°
2026-05-05 23:02 55.30993 -4.14225 16000 ft 333 kts 65°
2026-05-05 23:03 55.31888 -4.10526 15502 ft 330 kts 64°
2026-05-05 23:03 55.32796 -4.06829 14999 ft 327 kts 64°
2026-05-05 23:03 55.33692 -4.03193 14500 ft 324 kts 64°
2026-05-05 23:03 55.34587 -3.99553 13998 ft 321 kts 64°
2026-05-05 23:04 55.35465 -3.95976 13498 ft 319 kts 64°
2026-05-05 23:04 55.36336 -3.92429 12999 ft 316 kts 64°
2026-05-05 23:04 55.37207 -3.88871 12495 ft 313 kts 64°
2026-05-05 23:04 55.38054 -3.85401 11996 ft 311 kts 64°
2026-05-05 23:05 55.38900 -3.81898 11501 ft 308 kts 64°
2026-05-05 23:05 55.39716 -3.78456 10995 ft 304 kts 65°
2026-05-05 23:05 55.40529 -3.75026 10503 ft 301 kts 65°
2026-05-05 23:05 55.41332 -3.71671 10001 ft 297 kts 65°
2026-05-05 23:06 55.42129 -3.68377 9504 ft 293 kts 65°
2026-05-05 23:06 55.42934 -3.65100 9002 ft 289 kts 65°
2026-05-05 23:06 55.43848 -3.61987 8488 ft 283 kts 53°
2026-05-05 23:06 55.45295 -3.59809 8226 ft 273 kts 28°
2026-05-05 23:07 55.47118 -3.58853 7992 ft 272 kts
2026-05-05 23:07 55.48991 -3.58670 7756 ft 272 kts
2026-05-05 23:07 55.50857 -3.58760 7511 ft 264 kts 358°
2026-05-05 23:07 55.52646 -3.58948 7253 ft 253 kts 356°
2026-05-05 23:08 55.54387 -3.59174 6997 ft 244 kts 356°
2026-05-05 23:08 55.56060 -3.59412 6743 ft 240 kts 356°
2026-05-05 23:08 55.57699 -3.59660 6498 ft 237 kts 356°
2026-05-05 23:08 55.59337 -3.59920 6244 ft 235 kts 356°
2026-05-05 23:09 55.60964 -3.60189 5989 ft 233 kts 356°
2026-05-05 23:09 55.62560 -3.60464 5740 ft 232 kts 356°
2026-05-05 23:09 55.64176 -3.60753 5489 ft 231 kts 356°
2026-05-05 23:09 55.65765 -3.61046 5239 ft 230 kts 356°
2026-05-05 23:10 55.67349 -3.61348 4989 ft 230 kts 356°
2026-05-05 23:10 55.68942 -3.61658 4736 ft 229 kts 356°
2026-05-05 23:10 55.70529 -3.61978 4487 ft 228 kts 356°
2026-05-05 23:10 55.72088 -3.62300 4239 ft 228 kts 356°
2026-05-05 23:11 55.73666 -3.62634 3986 ft 227 kts 356°
2026-05-05 23:11 55.75231 -3.62975 3776 ft 225 kts 356°
2026-05-05 23:11 55.76785 -3.63322 3526 ft 227 kts 356°
2026-05-05 23:11 55.78362 -3.63684 3268 ft 225 kts 356°
2026-05-05 23:12 55.79878 -3.64043 3018 ft 219 kts 356°
2026-05-05 23:12 55.81351 -3.64405 2897 ft 206 kts 356°
2026-05-05 23:12 55.82733 -3.64755 2777 ft 198 kts 356°
2026-05-05 23:12 55.84082 -3.64945 2620 ft 189 kts
2026-05-05 23:13 55.85254 -3.64127 2508 ft 179 kts 34°
2026-05-05 23:13 55.86189 -3.62700 2399 ft 177 kts 49°
2026-05-05 23:13 55.86963 -3.60983 2281 ft 175 kts 56°
2026-05-05 23:13 55.87621 -3.59197 2170 ft 173 kts 59°
2026-05-05 23:14 55.88242 -3.57357 2069 ft 172 kts 61°
2026-05-05 23:14 55.88841 -3.55535 1972 ft 172 kts 61°
2026-05-05 23:14 55.89443 -3.53734 1850 ft 162 kts 60°
2026-05-05 23:14 55.89968 -3.52185 1731 ft 136 kts 60°
2026-05-05 23:15 55.90449 -3.50763 1572 ft 134 kts 60°
2026-05-05 23:15 55.90935 -3.49322 1423 ft 135 kts 60°
2026-05-05 23:15 55.91415 -3.47901 1277 ft 135 kts 60°
2026-05-05 23:15 55.91903 -3.46453 1123 ft 136 kts 60°
2026-05-05 23:16 55.92396 -3.44993 950 ft 136 kts 59°
2026-05-05 23:16 55.92882 -3.43551 776 ft 136 kts 59°
2026-05-05 23:16 55.93365 -3.42115 588 ft 136 kts 59°
2026-05-05 23:16 55.93856 -3.40657 395 ft 135 kts 59°
2026-05-05 23:17 55.94340 -3.39217 224 ft 134 kts 59°
2026-05-05 23:17 55.94799 -3.37856 144 ft 112 kts 59°
2026-05-05 23:17 55.95081 -3.37013 144 ft 52 kts 59°
2026-05-05 23:17 55.95226 -3.36583 144 ft 27 kts 59°
2026-05-05 23:18 55.95258 -3.36421 144 ft 5 kts 131°
2026-05-05 23:18 55.95232 -3.36389 144 ft 3 kts 149°
2026-05-05 23:18 55.95206 -3.36361 144 ft 7 kts 149°
2026-05-05 23:18 55.95139 -3.36306 144 ft 12 kts 183°
2026-05-05 23:19 55.95101 -3.36381 144 ft 9 kts 239°
2026-05-05 23:19 55.95065 -3.36491 144 ft 12 kts 239°
2026-05-05 23:19 55.95017 -3.36632 144 ft 14 kts 239°
2026-05-05 23:19 55.94976 -3.36756 144 ft 10 kts 239°
2026-05-05 23:20 55.94922 -3.36822 144 ft 11 kts 165°
2026-05-05 23:20 55.94849 -3.36750 144 ft 12 kts 152°
2026-05-05 23:20 55.94798 -3.36739 144 ft 5 kts 179°
2026-05-05 23:20 55.94756 -3.36728 144 ft 6 kts 141°
2026-05-05 23:21 55.94751 -3.36675 144 ft 4 kts 89°
2026-05-05 23:21 55.94751 -3.36627 144 ft 4 kts 89°
2026-05-05 23:21 55.94751 -3.36610 144 ft 0 kts 89°
2026-05-05 23:37 55.94805 -3.36581 144 ft 104 kts 89°
2026-05-05 23:38 55.94962 -3.36106 144 ft 0 kts 89°